N4322X KLIT-KMEM

Flight info

Callsign N4322X
Flight time 1h 0m
Altitude 4000
Route MICKE
Aircraft P28A/L-SBGRY/EB1

Departure

Time 2026-04-20 19:05
Airport Bill & Hillary Clinton National Airport/Adams Field (KLIT)

Arrival

Time 2026-04-20 20:05
Airport Memphis International Airport (KMEM)
Time Latitude Longitude Altitude Speed Heading
2026-04-20 18:54 34.73228 -92.24132 257 ft 0 kts
2026-04-20 19:00 34.73229 -92.24133 257 ft 2 kts 269°
2026-04-20 19:00 34.73228 -92.24113 257 ft 4 kts 68°
2026-04-20 19:00 34.73239 -92.24041 257 ft 10 kts 88°
2026-04-20 19:00 34.73252 -92.23978 257 ft 7 kts 41°
2026-04-20 19:01 34.73315 -92.23965 257 ft 12 kts 360°
2026-04-20 19:01 34.73420 -92.23962 257 ft 16 kts
2026-04-20 19:01 34.73550 -92.23957 256 ft 20 kts
2026-04-20 19:01 34.73702 -92.23951 255 ft 23 kts
2026-04-20 19:02 34.73847 -92.23947 254 ft 13 kts
2026-04-20 19:02 34.73928 -92.23946 254 ft 9 kts
2026-04-20 19:02 34.73962 -92.23920 253 ft 0 kts 66°
2026-04-20 19:03 34.73967 -92.23906 253 ft 10 kts 70°
2026-04-20 19:03 34.73961 -92.23814 251 ft 6 kts 154°
2026-04-20 19:04 34.73831 -92.23814 254 ft 42 kts 184°
2026-04-20 19:04 34.73382 -92.23824 268 ft 79 kts 186°
2026-04-20 19:04 34.72821 -92.23840 437 ft 82 kts 181°
2026-04-20 19:04 34.72251 -92.23814 591 ft 83 kts 187°
2026-04-20 19:05 34.71706 -92.23927 789 ft 80 kts 192°
2026-04-20 19:05 34.71153 -92.23966 970 ft 80 kts 178°
2026-04-20 19:05 34.70596 -92.23900 1139 ft 81 kts 179°
2026-04-20 19:05 34.70041 -92.23859 1316 ft 80 kts 178°
2026-04-20 19:06 34.69481 -92.23821 1482 ft 81 kts 178°
2026-04-20 19:06 34.68921 -92.23786 1669 ft 80 kts 176°
2026-04-20 19:06 34.68361 -92.23750 1840 ft 80 kts 178°
2026-04-20 19:06 34.67805 -92.23713 2009 ft 80 kts 177°
2026-04-20 19:07 34.67251 -92.23682 2174 ft 80 kts 178°
2026-04-20 19:07 34.66690 -92.23655 2337 ft 80 kts 177°
2026-04-20 19:07 34.66126 -92.23636 2495 ft 81 kts 178°
2026-04-20 19:07 34.65559 -92.23618 2659 ft 81 kts 179°
2026-04-20 19:08 34.65000 -92.23598 2824 ft 80 kts 175°
2026-04-20 19:08 34.64242 -92.22626 3139 ft 85 kts 118°
2026-04-20 19:08 34.64117 -92.21916 3299 ft 88 kts 89°
2026-04-20 19:09 34.64276 -92.21192 3452 ft 91 kts 67°
2026-04-20 19:09 34.64556 -92.20499 3596 ft 92 kts 64°
2026-04-20 19:09 34.65033 -92.19985 3751 ft 94 kts 24°
2026-04-20 19:09 34.65645 -92.19692 3876 ft 98 kts 19°
2026-04-20 19:10 34.66346 -92.19377 3854 ft 114 kts 20°
2026-04-20 19:10 34.67122 -92.19019 3844 ft 119 kts 21°
2026-04-20 19:10 34.67870 -92.18667 3836 ft 113 kts 21°
2026-04-20 19:10 34.68593 -92.18330 3838 ft 108 kts 21°
2026-04-20 19:11 34.69301 -92.18005 3844 ft 111 kts 20°
2026-04-20 19:11 34.70050 -92.17665 3846 ft 117 kts 20°
2026-04-20 19:11 34.70836 -92.17305 3852 ft 120 kts 20°
2026-04-20 19:11 34.71607 -92.16950 3924 ft 117 kts 20°
2026-04-20 19:12 34.72375 -92.16598 3952 ft 119 kts 20°
2026-04-20 19:12 34.73155 -92.16239 3958 ft 122 kts 21°
2026-04-20 19:12 34.73962 -92.15867 3958 ft 123 kts 21°
2026-04-20 19:12 34.74777 -92.15492 3955 ft 125 kts 20°
2026-04-20 19:13 34.75586 -92.15118 3955 ft 125 kts 21°
2026-04-20 19:13 34.76398 -92.14744 3953 ft 125 kts 20°
2026-04-20 19:13 34.77213 -92.14368 3954 ft 125 kts 20°
2026-04-20 19:13 34.78013 -92.13948 3945 ft 124 kts 36°
2026-04-20 19:14 34.78487 -92.13095 3950 ft 121 kts 73°
2026-04-20 19:14 34.78683 -92.12113 3953 ft 120 kts 82°
2026-04-20 19:14 34.78825 -92.11107 3954 ft 120 kts 82°
2026-04-20 19:14 34.78958 -92.10107 3954 ft 120 kts 83°
2026-04-20 19:15 34.79089 -92.09090 3951 ft 120 kts 83°
2026-04-20 19:15 34.79219 -92.08086 3949 ft 121 kts 84°
2026-04-20 19:15 34.79348 -92.07079 3946 ft 121 kts 84°
2026-04-20 19:15 34.79476 -92.06067 3944 ft 121 kts 84°
2026-04-20 19:16 34.79606 -92.05053 3944 ft 121 kts 83°
2026-04-20 19:16 34.79737 -92.04036 3944 ft 122 kts 84°
2026-04-20 19:16 34.79866 -92.03020 3943 ft 122 kts 84°
2026-04-20 19:16 34.79997 -92.01993 3942 ft 123 kts 83°
2026-04-20 19:17 34.80128 -92.00966 3942 ft 122 kts 83°
2026-04-20 19:17 34.80258 -91.99934 3939 ft 122 kts 83°
2026-04-20 19:17 34.80389 -91.98920 3933 ft 121 kts 83°
2026-04-20 19:17 34.80516 -91.97915 3933 ft 120 kts 84°
2026-04-20 19:18 34.80645 -91.96904 3937 ft 120 kts 83°
2026-04-20 19:18 34.80770 -91.95912 3940 ft 120 kts 83°
2026-04-20 19:18 34.80897 -91.94910 3940 ft 120 kts 83°
2026-04-20 19:18 34.81027 -91.93906 3939 ft 120 kts 83°
2026-04-20 19:19 34.81154 -91.92893 3935 ft 120 kts 83°
2026-04-20 19:19 34.81280 -91.91891 3934 ft 121 kts 83°
2026-04-20 19:19 34.81410 -91.90871 3932 ft 120 kts 83°
2026-04-20 19:19 34.81538 -91.89869 3930 ft 121 kts 83°
2026-04-20 19:20 34.81665 -91.88855 3927 ft 121 kts 84°
2026-04-20 19:20 34.81791 -91.87852 3926 ft 120 kts 83°
2026-04-20 19:20 34.81920 -91.86833 3925 ft 120 kts 83°
2026-04-20 19:20 34.82047 -91.85831 3925 ft 120 kts 84°
2026-04-20 19:21 34.82173 -91.84827 3925 ft 120 kts 83°
2026-04-20 19:21 34.82298 -91.83829 3924 ft 120 kts 83°
2026-04-20 19:21 34.82426 -91.82825 3924 ft 120 kts 83°
2026-04-20 19:21 34.82552 -91.81822 3924 ft 120 kts 83°
2026-04-20 19:22 34.82678 -91.80821 3922 ft 120 kts 84°
2026-04-20 19:22 34.82805 -91.79810 3922 ft 120 kts 83°
2026-04-20 19:22 34.82930 -91.78805 3922 ft 120 kts 83°
2026-04-20 19:22 34.83058 -91.77793 3922 ft 121 kts 83°
2026-04-20 19:23 34.83184 -91.76787 3922 ft 121 kts 83°
2026-04-20 19:23 34.83310 -91.75781 3921 ft 121 kts 83°
2026-04-20 19:23 34.83436 -91.74771 3921 ft 120 kts 83°
2026-04-20 19:23 34.83563 -91.73753 3922 ft 120 kts 83°
2026-04-20 19:24 34.83689 -91.72751 3922 ft 120 kts 83°
2026-04-20 19:24 34.83814 -91.71752 3922 ft 120 kts 83°
2026-04-20 19:24 34.83940 -91.70741 3922 ft 120 kts 83°
2026-04-20 19:24 34.84066 -91.69736 3922 ft 120 kts 83°
2026-04-20 19:25 34.84193 -91.68720 3923 ft 120 kts 83°
2026-04-20 19:25 34.84317 -91.67711 3924 ft 120 kts 83°
2026-04-20 19:25 34.84443 -91.66710 3924 ft 121 kts 83°
2026-04-20 19:25 34.84570 -91.65690 3926 ft 121 kts 83°
2026-04-20 19:26 34.84694 -91.64688 3926 ft 121 kts 83°
2026-04-20 19:26 34.84820 -91.63669 3927 ft 121 kts 83°
2026-04-20 19:26 34.84948 -91.62654 3927 ft 121 kts 83°
2026-04-20 19:26 34.85077 -91.61651 3929 ft 121 kts 83°
2026-04-20 19:27 34.85209 -91.60624 3932 ft 121 kts 83°
2026-04-20 19:27 34.85336 -91.59621 3934 ft 120 kts 83°
2026-04-20 19:27 34.85464 -91.58604 3937 ft 120 kts 83°
2026-04-20 19:27 34.85589 -91.57604 3938 ft 120 kts 83°
2026-04-20 19:28 34.85714 -91.56598 3937 ft 121 kts 83°
2026-04-20 19:28 34.85841 -91.55584 3937 ft 121 kts 83°
2026-04-20 19:28 34.85967 -91.54559 3938 ft 121 kts 83°
2026-04-20 19:28 34.86093 -91.53546 3938 ft 121 kts 83°
2026-04-20 19:29 34.86216 -91.52543 3937 ft 121 kts 82°
2026-04-20 19:29 34.86341 -91.51531 3937 ft 121 kts 83°
2026-04-20 19:29 34.86466 -91.50511 3937 ft 121 kts 83°
2026-04-20 19:29 34.86592 -91.49499 3937 ft 121 kts 83°
2026-04-20 19:30 34.86717 -91.48479 3939 ft 121 kts 83°
2026-04-20 19:30 34.86840 -91.47472 3938 ft 121 kts 82°
2026-04-20 19:30 34.86965 -91.46456 3937 ft 121 kts 83°
2026-04-20 19:30 34.87092 -91.45430 3936 ft 121 kts 83°
2026-04-20 19:31 34.87215 -91.44417 3933 ft 122 kts 83°
2026-04-20 19:31 34.87340 -91.43396 3932 ft 122 kts 83°
2026-04-20 19:31 34.87466 -91.42360 3935 ft 122 kts 83°
2026-04-20 19:31 34.87590 -91.41360 3953 ft 121 kts 83°
2026-04-20 19:32 34.87715 -91.40331 3956 ft 121 kts 83°
2026-04-20 19:32 34.87839 -91.39314 3956 ft 122 kts 83°
2026-04-20 19:32 34.87963 -91.38303 3954 ft 122 kts 83°
2026-04-20 19:32 34.88089 -91.37270 3956 ft 122 kts 83°
2026-04-20 19:33 34.88213 -91.36247 3955 ft 122 kts 83°
2026-04-20 19:33 34.88338 -91.35220 3956 ft 122 kts 82°
2026-04-20 19:33 34.88464 -91.34190 3956 ft 122 kts 83°
2026-04-20 19:33 34.88589 -91.33165 3956 ft 122 kts 83°
2026-04-20 19:34 34.88713 -91.32143 3956 ft 122 kts 83°
2026-04-20 19:34 34.88839 -91.31110 3955 ft 122 kts 83°
2026-04-20 19:34 34.88961 -91.30096 3956 ft 122 kts 83°
2026-04-20 19:34 34.89086 -91.29073 3955 ft 121 kts 83°
2026-04-20 19:35 34.89209 -91.28062 3955 ft 122 kts 84°
2026-04-20 19:35 34.89331 -91.27047 3955 ft 121 kts 83°
2026-04-20 19:35 34.89456 -91.26020 3956 ft 121 kts 83°
2026-04-20 19:35 34.89579 -91.24998 3955 ft 121 kts 83°
2026-04-20 19:36 34.89702 -91.23982 3951 ft 122 kts 83°
2026-04-20 19:36 34.89823 -91.22971 3948 ft 122 kts 83°
2026-04-20 19:36 34.89948 -91.21945 3945 ft 122 kts 82°
2026-04-20 19:36 34.90073 -91.20914 3942 ft 123 kts 83°
2026-04-20 19:37 34.90195 -91.19891 3941 ft 123 kts 83°
2026-04-20 19:37 34.90319 -91.18867 3942 ft 122 kts 83°
2026-04-20 19:37 34.90448 -91.17838 3942 ft 122 kts 82°
2026-04-20 19:37 34.90594 -91.16822 3944 ft 122 kts 81°
2026-04-20 19:38 34.90762 -91.15797 3944 ft 122 kts 79°
2026-04-20 19:38 34.90944 -91.14798 3943 ft 122 kts 77°
2026-04-20 19:38 34.91138 -91.13779 3941 ft 122 kts 80°
2026-04-20 19:38 34.91275 -91.12761 3942 ft 122 kts 82°
2026-04-20 19:39 34.91408 -91.11751 3943 ft 122 kts 82°
2026-04-20 19:39 34.91543 -91.10727 3943 ft 122 kts 83°
2026-04-20 19:39 34.91614 -91.09693 3944 ft 122 kts 87°
2026-04-20 19:39 34.91682 -91.08661 3943 ft 122 kts 86°
2026-04-20 19:40 34.91764 -91.07649 3942 ft 122 kts 85°
2026-04-20 19:40 34.91859 -91.06613 3942 ft 122 kts 85°
2026-04-20 19:40 34.91961 -91.05579 3943 ft 123 kts 84°
2026-04-20 19:40 34.92109 -91.04567 3944 ft 123 kts 70°
2026-04-20 19:41 34.92459 -91.03605 3943 ft 123 kts 65°
2026-04-20 19:41 34.92828 -91.02663 3943 ft 123 kts 65°
2026-04-20 19:41 34.93195 -91.01716 3944 ft 123 kts 65°
2026-04-20 19:41 34.93559 -91.00773 3944 ft 123 kts 65°
2026-04-20 19:42 34.93922 -90.99822 3943 ft 124 kts 65°
2026-04-20 19:42 34.95799 -90.94887 3966 ft 123 kts 65°
2026-04-20 19:42 35.01539 -90.79603 3971 ft 124 kts 65°
2026-04-20 19:42 35.07237 -90.64329 3962 ft 124 kts 64°
2026-04-20 19:43 35.10029 -90.56844 3972 ft 126 kts 65°
2026-04-20 19:43 35.10383 -90.55872 3962 ft 125 kts 64°
2026-04-20 19:43 35.10738 -90.54903 3960 ft 125 kts 64°
2026-04-20 19:43 35.11096 -90.53936 3962 ft 124 kts 64°
2026-04-20 19:44 35.11453 -90.52976 3961 ft 124 kts 64°
2026-04-20 19:44 35.11811 -90.52011 3960 ft 124 kts 64°
2026-04-20 19:44 35.12163 -90.51066 3965 ft 123 kts 64°
2026-04-20 19:44 35.12519 -90.50105 3964 ft 124 kts 64°
2026-04-20 19:45 35.12872 -90.49155 4000 ft 121 kts 64°
2026-04-20 19:45 35.13215 -90.48231 4068 ft 117 kts 64°
2026-04-20 19:45 35.13547 -90.47340 4139 ft 115 kts 64°
2026-04-20 19:45 35.13878 -90.46455 4208 ft 113 kts 63°
2026-04-20 19:46 35.14202 -90.45582 4279 ft 112 kts 63°
2026-04-20 19:46 35.14525 -90.44714 4348 ft 113 kts 63°
2026-04-20 19:46 35.14854 -90.43828 4362 ft 117 kts 63°
2026-04-20 19:46 35.15197 -90.42900 4365 ft 120 kts 64°
2026-04-20 19:47 35.15541 -90.41968 4360 ft 122 kts 64°
2026-04-20 19:47 35.15893 -90.41013 4362 ft 122 kts 64°
2026-04-20 19:47 35.16245 -90.40056 4363 ft 123 kts 63°
2026-04-20 19:47 35.16590 -90.39124 4412 ft 120 kts 63°
2026-04-20 19:48 35.16932 -90.38201 4450 ft 119 kts 63°
2026-04-20 19:48 35.17276 -90.37272 4460 ft 121 kts 63°
2026-04-20 19:48 35.17630 -90.36315 4462 ft 122 kts 64°
2026-04-20 19:48 35.17981 -90.35365 4465 ft 123 kts 64°
2026-04-20 19:49 35.18331 -90.34416 4461 ft 123 kts 64°
2026-04-20 19:49 35.18689 -90.33448 4461 ft 124 kts 64°
2026-04-20 19:49 35.19039 -90.32499 4463 ft 123 kts 64°
2026-04-20 19:49 35.19393 -90.31541 4467 ft 124 kts 64°
2026-04-20 19:50 35.19746 -90.30584 4465 ft 124 kts 64°
2026-04-20 19:50 35.20106 -90.29608 4467 ft 124 kts 64°
2026-04-20 19:50 35.20458 -90.28655 4467 ft 125 kts 64°
2026-04-20 19:50 35.20820 -90.27674 4468 ft 125 kts 64°
2026-04-20 19:51 35.21175 -90.26708 4467 ft 124 kts 64°
2026-04-20 19:51 35.21528 -90.25749 4466 ft 125 kts 64°
2026-04-20 19:51 35.21887 -90.24777 4462 ft 124 kts 63°
2026-04-20 19:51 35.22241 -90.23815 4458 ft 124 kts 64°
2026-04-20 19:52 35.22596 -90.22852 4459 ft 124 kts 64°
2026-04-20 19:52 35.22949 -90.21893 4461 ft 124 kts 64°
2026-04-20 19:52 35.23305 -90.20926 4459 ft 124 kts 64°
2026-04-20 19:52 35.23659 -90.19964 4459 ft 124 kts 64°
2026-04-20 19:53 35.24009 -90.19012 4460 ft 124 kts 64°
2026-04-20 19:53 35.24366 -90.18041 4461 ft 124 kts 64°
2026-04-20 19:53 35.24721 -90.17075 4460 ft 124 kts 63°
2026-04-20 19:53 35.25074 -90.16114 4459 ft 124 kts 63°
2026-04-20 19:54 35.25425 -90.15158 4459 ft 124 kts 63°
2026-04-20 19:54 35.25782 -90.14184 4459 ft 124 kts 63°
2026-04-20 19:54 35.26043 -90.13184 4454 ft 125 kts 82°
2026-04-20 19:54 35.26099 -90.12116 4460 ft 125 kts 87°
2026-04-20 19:55 35.26120 -90.11057 4461 ft 125 kts 88°
2026-04-20 19:55 35.26136 -90.09994 4460 ft 125 kts 88°
2026-04-20 19:55 35.26152 -90.08920 4461 ft 125 kts 88°
2026-04-20 19:55 35.26168 -90.07871 4460 ft 125 kts 88°
2026-04-20 19:56 35.26185 -90.06805 4461 ft 124 kts 88°
2026-04-20 19:56 35.26201 -90.05746 4461 ft 125 kts 88°
2026-04-20 19:56 35.26216 -90.04682 4460 ft 125 kts 88°
2026-04-20 19:56 35.26232 -90.03622 4459 ft 125 kts 88°
2026-04-20 19:57 35.26247 -90.02556 4461 ft 125 kts 87°
2026-04-20 19:57 35.26260 -90.01530 4456 ft 117 kts 88°
2026-04-20 19:57 35.26273 -90.00550 4457 ft 112 kts 87°
2026-04-20 19:57 35.26288 -89.99610 4460 ft 112 kts 87°
2026-04-20 19:58 35.26212 -89.98635 4353 ft 121 kts 111°
2026-04-20 19:58 35.25637 -89.97868 4227 ft 124 kts 154°
2026-04-20 19:58 35.24809 -89.97668 4108 ft 124 kts 180°
2026-04-20 19:58 35.23939 -89.97656 3988 ft 124 kts 182°
2026-04-20 19:59 35.23074 -89.97653 3869 ft 125 kts 181°
2026-04-20 19:59 35.22203 -89.97643 3749 ft 124 kts 182°
2026-04-20 19:59 35.21327 -89.97628 3600 ft 126 kts 181°
2026-04-20 19:59 35.20447 -89.97611 3442 ft 127 kts 181°
2026-04-20 20:00 35.19585 -89.97595 3275 ft 119 kts 182°
2026-04-20 20:00 35.18773 -89.97585 3115 ft 113 kts 182°
2026-04-20 20:00 35.17997 -89.97571 2964 ft 110 kts 182°
2026-04-20 20:00 35.17238 -89.97553 2815 ft 108 kts 182°
2026-04-20 20:01 35.16491 -89.97537 2667 ft 107 kts 182°
2026-04-20 20:01 35.15744 -89.97520 2518 ft 107 kts 182°
2026-04-20 20:01 35.15002 -89.97504 2372 ft 106 kts 183°
2026-04-20 20:01 35.14321 -89.97488 2281 ft 96 kts 182°
2026-04-20 20:02 35.13647 -89.97475 2130 ft 96 kts 182°
2026-04-20 20:02 35.12978 -89.97463 1983 ft 95 kts 182°
2026-04-20 20:02 35.12313 -89.97450 1840 ft 95 kts 183°
2026-04-20 20:02 35.11653 -89.97437 1699 ft 94 kts 182°
2026-04-20 20:03 35.11006 -89.97423 1565 ft 93 kts 181°
2026-04-20 20:03 35.10359 -89.97408 1432 ft 92 kts 182°
2026-04-20 20:03 35.09719 -89.97396 1300 ft 92 kts 181°
2026-04-20 20:03 35.09071 -89.97382 1170 ft 92 kts 181°
2026-04-20 20:04 35.08433 -89.97369 1040 ft 92 kts 181°
2026-04-20 20:04 35.07792 -89.97354 913 ft 92 kts 180°
2026-04-20 20:04 35.07140 -89.97341 783 ft 92 kts 181°
2026-04-20 20:04 35.06504 -89.97327 656 ft 93 kts 182°
2026-04-20 20:05 35.05851 -89.97315 526 ft 92 kts 181°
2026-04-20 20:05 35.05234 -89.97302 400 ft 84 kts 181°
2026-04-20 20:05 35.04707 -89.97290 290 ft 65 kts 181°
2026-04-20 20:05 35.04355 -89.97295 286 ft 33 kts 180°
2026-04-20 20:06 35.04315 -89.97255 286 ft 10 kts 24°
2026-04-20 20:06 35.04400 -89.97208 283 ft 11 kts 36°
2026-04-20 20:06 35.04444 -89.97163 282 ft 5 kts 40°